This is the latest recevied weather packets stored in our database for station/object SP1BMW-13. If no packets are shown the sender has not sent any weather packets the latest 10 day(s).
| Time | Temp. | Humidity | Pressure | Rain* | Wind** | Luminosity | Snow |
|---|---|---|---|---|---|---|---|
| 1787833216 | 25.56° C | 38% | 1018.6 hPa | 0 mm | 1.79 m/s, 57° | 608 W/m² | - |
| 1787833156 | 25.56° C | 38% | 1018.5 hPa | 0 mm | 2.68 m/s, 42° | 608 W/m² | - |
| 1787833096 | 25.56° C | 39% | 1018.5 hPa | 0 mm | 0.89 m/s, 35° | 604 W/m² | - |
| 1787833036 | 25.56° C | 39% | 1018.7 hPa | 0 mm | 0.45 m/s, 148° | 608 W/m² | - |
| 1787832976 | 25.56° C | 40% | 1018.8 hPa | 0 mm | 0.89 m/s, 11° | 608 W/m² | - |
| 1787832916 | 25.56° C | 40% | 1018.8 hPa | 0 mm | 0.89 m/s, 13° | 611 W/m² | - |
| 1787832856 | 25.56° C | 39% | 1018.5 hPa | 0 mm | 1.79 m/s, 54° | 611 W/m² | - |
| 1787832796 | 25.56° C | 38% | 1018.8 hPa | 0 mm | 2.68 m/s, 68° | 613 W/m² | - |
| 1787832736 | 26.11° C | 39% | 1018.7 hPa | 0 mm | 2.24 m/s, 50° | 617 W/m² | - |
| 1787832676 | 26.11° C | 38% | 1018.9 hPa | 0 mm | 0.89 m/s, 124° | 614 W/m² | - |
| 1787832616 | 26.11° C | 37% | 1018.9 hPa | 0 mm | 1.79 m/s, 138° | 616 W/m² | - |
| 1787832556 | 26.11° C | 38% | 1018.9 hPa | 0 mm | 1.34 m/s, 65° | 618 W/m² | - |
| 1787832496 | 26.11° C | 37% | 1018.8 hPa | 0 mm | 2.24 m/s, 43° | 619 W/m² | - |
| 1787832436 | 26.11° C | 37% | 1018.9 hPa | 0 mm | 0.89 m/s, 28° | 617 W/m² | - |
| 1787832376 | 26.11° C | 38% | 1018.8 hPa | 0 mm | 0.45 m/s, 87° | 619 W/m² | - |
| 1787832315 | 26.11° C | 39% | 1018.8 hPa | 0 mm | 0.89 m/s, 104° | 618 W/m² | - |
| 1787832256 | 26.11° C | 37% | 1018.8 hPa | 0 mm | 0.89 m/s, 123° | 616 W/m² | - |
| 1787832196 | 26.11° C | 37% | 1018.9 hPa | 0 mm | 0.89 m/s, 108° | 620 W/m² | - |
| 1787832136 | 26.11° C | 39% | 1018.8 hPa | 0 mm | 1.34 m/s, 66° | 623 W/m² | - |
| 1787832076 | 26.11° C | 40% | 1019 hPa | 0 mm | 0.45 m/s, 57° | 624 W/m² | - |
| 1787832017 | 26.11° C | 40% | 1018.9 hPa | 0 mm | 1.34 m/s, 109° | 628 W/m² | - |
| 1787831956 | 26.11° C | 40% | 1018.8 hPa | 0 mm | 1.34 m/s, 35° | 630 W/m² | - |
| 1787831896 | 26.11° C | 39% | 1018.9 hPa | 0 mm | 0.45 m/s, 44° | 629 W/m² | - |
| 1787831836 | 26.11° C | 41% | 1019 hPa | 0 mm | 0.45 m/s, 34° | 628 W/m² | - |
| 1787831776 | 26.11° C | 41% | 1018.9 hPa | 0 mm | 0.89 m/s, 32° | 625 W/m² | - |
* Rain latest hour (hover to see other rain measurements)
** Current wind speed in m/s (hover to see current wind gust speed)